Back to catalog

STARLINK-3179

AliveCommunicationsVLEO
NORAD 51141·PAYLOAD·🇺🇸 United States

Launched Jan 19, 2022 from Cape Canaveral Space Force Station

Loading…

Next Passes (next 24 hours)

TLE

FreshSource: CelesTrak SupGP

Epoch: Sep 14, 2026, 21:19 UTC

1 51141C 22005AP  26257.88868056 -.00029495  00000+0 -87143-3 0  2575
2 51141  53.1570 155.6896 0001339  92.9051   0.8650 15.34404966    19

Track STARLINK-3179 in real time with AllMySat

Download on the App Store